Date String (YYYY-MM-DD hh:mm:ss) UTC,Instrument flags,Ambient pressure (hPa),Sample flow (lpm),Bypass flow (lpm),Sample temperature (°C),Ambient temperature (°C),ASC tube jacket temperature (°C),LED temperature (°C),Box temperature (°C),Sample RH (%),Span deviation,Mass concentration (μg/m³),Mass concentration (μg/m³),Mass concentration (μg/m³)
DateTimeUTC,F1_M11,P_M11,Q1_M11,Q2_M11,T1_M11,T2_M11,T3_M11,T4_M11,T5_M11,U1_M11,ZSPAN_M11,X0_M11,X2_M11,X1_M11
2022-06-22 04:00:00,,0834.6,5.01,0.00,29.7,28.9,00.0,38.5,31.7,12.8,0000.0,0010.28,0003.20,0001.45
2022-06-22 04:01:00,,0834.6,4.99,0.00,29.7,28.9,00.0,38.5,31.7,12.7,0000.0,0010.80,0003.21,0001.47
2022-06-22 04:02:00,,0834.5,5.00,0.00,29.8,28.5,00.0,38.4,31.6,12.8,0000.0,0011.01,0003.20,0001.49
2022-06-22 04:03:00,,0834.5,5.00,0.00,29.7,27.7,00.0,38.4,31.4,12.8,0000.0,0011.16,0003.21,0001.49
2022-06-22 04:04:00,,0834.5,5.01,0.00,29.6,27.4,00.0,38.3,31.3,12.9,0000.0,0011.28,0003.20,0001.48
2022-06-22 04:05:00,,0834.5,5.01,0.00,29.6,27.4,00.0,38.3,31.3,12.9,0000.0,0011.46,0003.21,0001.48
2022-06-22 04:06:00,,0834.5,5.00,0.00,29.5,27.5,00.0,38.3,31.2,13.0,0000.0,0011.31,0003.20,0001.48
2022-06-22 04:07:00,,0834.4,5.00,0.00,29.5,27.6,00.0,38.3,31.3,13.0,0000.0,0010.64,0003.22,0001.49
2022-06-22 04:08:00,,0834.5,5.00,0.00,29.5,27.8,00.0,38.3,31.3,13.1,0000.0,0010.27,0003.26,0001.49
2022-06-22 04:09:00,,0834.4,5.00,0.00,29.5,27.9,00.0,38.3,31.3,13.1,0000.0,0010.08,0003.23,0001.49
2022-06-22 04:10:00,,0834.4,5.01,0.00,29.5,28.0,00.0,38.3,31.3,13.1,0000.0,0009.99,0003.24,0001.49
2022-06-22 04:11:00,,0834.5,4.99,0.00,29.5,28.2,00.0,38.3,31.4,13.1,0000.0,0009.86,0003.24,0001.49
2022-06-22 04:12:00,,0834.4,5.00,0.00,29.5,28.3,00.0,38.3,31.4,13.1,0000.0,0009.75,0003.26,0001.50
2022-06-22 04:13:00,,0834.5,5.00,0.00,29.5,28.4,00.0,38.3,31.4,13.1,0000.0,0010.10,0003.28,0001.50
2022-06-22 04:14:00,,0834.4,4.99,0.00,29.6,28.4,00.0,38.4,31.5,13.0,0000.0,0010.18,0003.25,0001.49
2022-06-22 04:15:00,,0834.4,5.00,0.00,29.6,28.5,00.0,38.4,31.5,13.0,0000.0,0010.04,0003.26,0001.50
2022-06-22 04:16:00,,0834.5,5.01,0.00,29.6,28.6,00.0,38.4,31.5,13.0,0000.0,0009.97,0003.29,0001.51
2022-06-22 04:17:00,,0834.5,5.00,0.00,29.6,28.6,00.0,38.4,31.5,12.9,0000.0,0009.88,0003.27,0001.50
2022-06-22 04:18:00,,0834.5,5.00,0.00,29.7,28.7,00.0,38.4,31.6,12.9,0000.0,0010.09,0003.25,0001.49
2022-06-22 04:19:00,,0834.6,5.01,0.00,29.7,28.8,00.0,38.4,31.6,12.9,0000.0,0010.52,0003.19,0001.48
2022-06-22 04:20:00,,0834.6,4.99,0.00,29.7,28.8,00.0,38.4,31.6,12.9,0000.0,0010.42,0003.16,0001.46
2022-06-22 04:21:00,,0834.6,5.01,0.00,29.7,28.9,00.0,38.5,31.7,12.9,0000.0,0009.96,0003.10,0001.46
2022-06-22 04:22:00,,0834.6,5.00,0.00,29.8,28.9,00.0,38.5,31.7,12.9,0000.0,0010.22,0003.08,0001.46
2022-06-22 04:23:00,,0834.6,5.01,0.00,29.8,28.8,00.0,38.5,31.7,12.8,0000.0,0011.20,0003.11,0001.47
2022-06-22 04:24:00,,0834.6,4.99,0.00,29.7,27.8,00.0,38.4,31.5,12.9,0000.0,0010.66,0003.07,0001.46
2022-06-22 04:25:00,,0834.6,5.00,0.00,29.6,27.4,00.0,38.4,31.3,12.9,0000.0,0010.44,0003.08,0001.46
2022-06-22 04:26:00,,0834.5,5.00,0.00,29.6,27.3,00.0,38.4,31.2,13.0,0000.0,0010.69,0003.12,0001.46
2022-06-22 04:27:00,,0834.5,5.00,0.00,29.5,27.4,00.0,38.4,31.2,13.1,0000.0,0010.85,0003.08,0001.46
2022-06-22 04:28:00,,0834.5,4.99,0.00,29.5,27.5,00.0,38.3,31.2,13.1,0000.0,0010.90,0003.11,0001.47
2022-06-22 04:29:00,,0834.5,4.99,0.00,29.5,27.7,00.0,38.3,31.2,13.1,0000.0,0010.74,0003.13,0001.46
2022-06-22 04:30:00,,0834.5,5.01,0.00,29.5,27.8,00.0,38.3,31.3,13.1,0000.0,0010.14,0003.15,0001.46
2022-06-22 04:31:00,,0834.4,5.01,0.00,29.5,27.9,00.0,38.3,31.3,13.1,0000.0,0009.60,0003.16,0001.46
2022-06-22 04:32:00,,0834.5,4.99,0.00,29.5,28.1,00.0,38.3,31.3,13.1,0000.0,0009.52,0003.15,0001.45
2022-06-22 04:33:00,,0834.5,5.00,0.00,29.5,28.2,00.0,38.3,31.4,13.1,0000.0,0009.39,0003.15,0001.43
2022-06-22 04:34:00,,0834.5,4.99,0.00,29.5,28.3,00.0,38.3,31.4,13.0,0000.0,0007.75,0003.09,0001.41
2022-06-22 04:35:00,,0834.5,5.01,0.00,29.5,28.4,00.0,38.4,31.4,13.0,0000.0,0007.70,0003.09,0001.40
2022-06-22 04:36:00,,0834.5,5.00,0.00,29.6,28.5,00.0,38.4,31.4,13.0,0000.0,0007.81,0003.12,0001.38
2022-06-22 04:37:00,,0834.5,5.00,0.00,29.6,28.5,00.0,38.4,31.5,13.0,0000.0,0007.73,0003.14,0001.38
2022-06-22 04:38:00,,0834.5,5.01,0.00,29.6,28.6,00.0,38.4,31.5,13.0,0000.0,0007.39,0003.08,0001.37
2022-06-22 04:39:00,,0834.5,5.00,0.00,29.6,28.7,00.0,38.4,31.6,12.9,0000.0,0007.41,0003.07,0001.37
2022-06-22 04:40:00,,0834.6,4.99,0.00,29.7,28.7,00.0,38.4,31.6,12.9,0000.0,0007.54,0003.13,0001.38
2022-06-22 04:41:00,,0834.6,5.01,0.00,29.7,28.8,00.0,38.4,31.6,12.9,0000.0,0007.63,0003.15,0001.38
2022-06-22 04:42:00,,0834.5,4.99,0.00,29.7,28.8,00.0,38.5,31.7,12.9,0000.0,0007.62,0003.13,0001.38
2022-06-22 04:43:00,,0834.5,5.00,0.00,29.7,28.9,00.0,38.5,31.7,12.9,0000.0,0007.62,0003.14,0001.39
2022-06-22 04:44:00,,0834.5,5.01,0.00,29.8,28.9,00.0,38.5,31.7,12.8,0000.0,0007.70,0003.12,0001.39
2022-06-22 04:45:00,,0834.4,4.99,0.00,29.8,28.7,00.0,38.5,31.7,12.8,0000.0,0007.93,0003.16,0001.39
2022-06-22 04:46:00,,0834.4,5.00,0.00,29.7,27.7,00.0,38.4,31.4,12.8,0000.0,0008.04,0003.19,0001.39
2022-06-22 04:47:00,,0834.4,5.01,0.00,29.6,27.3,00.0,38.4,31.3,12.9,0000.0,0007.91,0003.18,0001.40
2022-06-22 04:48:00,,0834.4,5.00,0.00,29.6,27.3,00.0,38.4,31.2,12.9,0000.0,0008.00,0003.21,0001.39
2022-06-22 04:49:00,,0834.5,5.00,0.00,29.5,27.3,00.0,38.4,31.2,13.0,0000.0,0008.02,0003.22,0001.39
2022-06-22 04:50:00,,0834.4,4.99,0.00,29.5,27.5,00.0,38.3,31.2,13.0,0000.0,0008.38,0003.24,0001.39
2022-06-22 04:51:00,,0834.4,4.99,0.00,29.5,27.6,00.0,38.3,31.2,13.0,0000.0,0009.07,0003.22,0001.40
2022-06-22 04:52:00,,0834.4,5.00,0.00,29.5,27.8,00.0,38.3,31.3,13.0,0000.0,0009.14,0003.19,0001.41
2022-06-22 04:53:00,,0834.4,5.00,0.00,29.5,27.9,00.0,38.3,31.3,13.0,0000.0,0009.21,0003.23,0001.42
2022-06-22 04:54:00,,0834.4,5.01,0.00,29.5,28.0,00.0,38.3,31.3,13.0,0000.0,0009.37,0003.25,0001.42
2022-06-22 04:55:00,,0834.4,5.00,0.00,29.5,28.2,00.0,38.3,31.4,13.0,0000.0,0009.55,0003.26,0001.42
2022-06-22 04:56:00,,0834.4,5.00,0.00,29.5,28.3,00.0,38.3,31.4,13.0,0000.0,0009.62,0003.23,0001.41
2022-06-22 04:57:00,,0834.5,4.99,0.00,29.5,28.3,00.0,38.3,31.4,13.0,0000.0,0009.66,0003.27,0001.42
2022-06-22 04:58:00,,0834.4,4.99,0.00,29.5,28.4,00.0,38.3,31.4,13.0,0000.0,0009.84,0003.31,0001.44
2022-06-22 04:59:00,,0834.4,5.00,0.00,29.6,28.5,00.0,38.4,31.5,13.0,0000.0,0009.90,0003.27,0001.46
